Tracking 29892 objects as of 21-Nov-2024
HD Live streaming from Space Station
objects crossing your sky now

COSMOS 2378

Track COSMOS 2378 now!
10-day predictions
COSMOS 2378 is classified as:


NORAD ID: 26818
Int'l Code: 2001-023A
Perigee: 968.3 km
Apogee: 1,015.9 km
Inclination: 82.9 °
Period: 104.8 minutes
Semi major axis: 7363 km
RCS: 1.9621 m2 (large)
Launch date: June 8, 2001
Source: Commonwealth of Independent States (former USSR) (CIS)
Launch site: PLESETSK MISSILE AND SPACE COMPLEX (PKMTR)

Normally part of a six-satellite constellation.
Your satellite tracking list
Your tracking list is empty




NASA's NSSDC Master Catalog

Two Line Element Set (TLE):
1 26818U 01023A   24325.86692716  .00000117  00000-0  10785-3 0  9995
2 26818  82.9248 286.5018 0032327 202.0142 186.8193 13.74087249176171
Source of the keplerian elements: AFSPC